sat.trackr.live / text

‹ back to catalog

STARLINK-35257

NORAD 66331 · 2025-253N

PAYLOAD ACTIVE UNKNOWN

§ Identity

Operator
Country
US
Launch date
2025-11-06
Launch site
AFETR
Launch vehicle
Mass (kg)
RCS (m²)

Purposes: comms

External: N2YO · Heavens-Above · Gunter

§ Orbital elements

Epoch: 2026-05-25T00:48:48.644640Z

Period
94.27 min
Inclination
42.9965°
Eccentricity
0.0000628
Mean motion
15.27589897 rev/d
Perigee alt
482.6 km
Apogee alt
483.5 km
Semi-major
6,861.2 km
B*
5.4718e-4
RAAN
141.0660°
Arg perigee
247.8058°
Mean anomaly
112.2727°
Rev number
3,192

§ Raw data

STARLINK-352571 66331U 25253N   26145.03389635  .00014830  00000+0  54718-3 0  99942 66331  42.9965 141.0660 0000628 247.8058 112.2727 15.27589897 31922

JSON: /api/v1/satellites/66331 · /tle

For live sub-satellite position, see the globe view (requires WebGL).

§ Visibility from observer

Set your observer location to see the next 7 days of passes ≥ 10°. The values pass through the URL so the page stays shareable.

No JS? Fill the form by hand. The geolocation button needs JavaScript.